EW8862 Weather Reports


time (UTC)temp
C
wind
direction
speed
KPH
gust
KPH
rain 1hr
cm
rain 24hr
cm
rain mn
cm
humidity
%
barometer
mb
20260507123016 16 229 0.0 4.8 0.00 0.00 0.00 40 1016.0
20260507121511 16 335 0.0 4.8 0.00 0.00 0.00 40 1016.1
20260507120014 16 117 0.0 3.2 0.00 0.00 0.00 40 1016.1
20260507114526 14 32 1.6 6.4 0.00 0.00 0.00 45 1016.2
20260507113026 15 65 1.6 3.2 0.00 0.00 0.00 44 1016.3
20260507111516 15 191 1.6 6.4 0.00 0.00 0.00 45 1016.3
20260507110013 14 54 1.6 6.4 0.00 0.00 0.00 48 1016.4
20260507104517 13 64 0.0 4.8 0.00 0.00 0.00 50 1016.5
20260507103026 13 40 0.0 4.8 0.00 0.00 0.00 51 1016.5
20260507101524 13 34 1.6 4.8 0.00 0.00 0.00 53 1016.6
20260507100008 13 243 0.0 1.6 0.00 0.00 0.00 56 1016.8
20260507094513 12 87 1.6 3.2 0.00 0.00 0.00 55 1016.7
20260507093017 12 246 1.6 6.4 0.00 0.00 0.00 58 1016.6
20260507091524 12 266 1.6 4.8 0.00 0.00 0.00 65 1016.7
20260507090035 11 28 1.6 4.8 0.00 0.00 0.00 73 1016.7
20260507084517 11 55 1.6 3.2 0.00 0.00 0.00 77 1016.8
20260507083016 10 357 0.0 3.2 0.00 0.00 0.00 80 1016.8
20260507081522 10 273 0.0 4.8 0.00 0.00 0.00 82 1016.8
20260507080028 9 320 1.6 3.2 0.00 0.00 0.00 84 1016.8
20260507074538 9 42 1.6 4.8 0.00 0.00 0.00 85 1016.7
20260507073012 8 25 0.0 3.2 0.00 0.00 0.00 87 1016.7
20260507071514 7 75 1.6 3.2 0.00 0.00 0.00 89 1016.6
20260507070024 6 30 0.0 1.6 0.00 0.00 0.00 90 1016.7
20260507064525 6 30 0.0 3.2 0.00 0.00 0.00 91 1016.7
20260507063034 6 30 0.0 1.6 0.00 0.00 0.00 92 1016.6
20260507061514 5 30 0.0 1.6 0.00 0.00 0.00 93 1016.6
20260507060020 5 30 0.0 1.6 0.00 0.00 0.00 93 1016.6
20260507054525 3 30 0.0 0.0 0.00 0.00 0.00 94 1016.5
20260507053026 3 30 0.0 0.0 0.00 0.00 0.00 93 1016.3
20260507051514 2 30 0.0 0.0 0.00 0.00 0.00 92 1016.2
20260507050018 2 30 0.0 0.0 0.00 0.00 0.00 91 1016.2
20260507044525 2 30 0.0 0.0 0.00 0.00 0.00 92 1016.1
20260507043026 2 30 0.0 0.0 0.00 0.00 0.00 91 1016.0
20260507041511 2 30 0.0 0.0 0.00 0.00 0.00 91 1016.1
20260507040016 2 30 0.0 0.0 0.00 0.00 0.00 90 1016.1
20260507034534 3 30 0.0 0.0 0.00 0.00 0.00 91 1016.0
20260507033024 3 30 0.0 0.0 0.00 0.00 0.00 90 1016.0
20260507031527 3 30 0.0 0.0 0.00 0.00 0.00 90 1016.0
20260507030015 3 30 0.0 0.0 0.00 0.00 0.00 90 1016.0
20260507024530 4 30 0.0 0.0 0.00 0.00 0.00 90 1015.9
20260507023022 4 30 0.0 0.0 0.00 0.00 0.00 90 1015.9
20260507021526 4 30 0.0 1.6 0.00 0.00 0.00 90 1016.0
20260507020030 5 52 0.0 0.0 0.00 0.00 0.00 89 1015.9
20260507014524 5 53 0.0 1.6 0.00 0.00 0.00 89 1015.8
20260507013016 5 52 0.0 1.6 0.00 0.00 0.00 89 1015.9
20260507011535 5 52 0.0 1.6 0.00 0.00 0.00 88 1015.9
20260507010026 5 52 0.0 1.6 0.00 0.00 0.00 89 1015.9
20260507004527 5 52 0.0 1.6 0.00 0.00 0.00 88 1015.9
20260507003016 6 52 0.0 1.6 0.00 0.00 0.00 87 1015.9
20260507001519 6 52 0.0 1.6 0.00 0.00 0.00 86 1015.9
20260507000024 6 52 0.0 1.6 0.00 0.00 0.00 86 1015.9
20260506234526 6 52 0.0 1.6 0.00 0.00 0.00 85 1015.8
20260506233028 6 53 0.0 3.2 0.00 0.00 0.00 85 1015.7
20260506231517 7 46 0.0 4.8 0.00 0.00 0.00 84 1015.7
20260506230020 7 58 1.6 3.2 0.00 0.00 0.00 82 1015.7
20260506224523 7 57 0.0 3.2 0.00 0.00 0.00 81 1015.7
20260506223028 7 53 0.0 1.6 0.00 0.00 0.00 80 1015.6
20260506221530 8 54 1.6 3.2 0.00 0.00 0.00 79 1015.6
20260506220018 8 46 1.6 4.8 0.00 0.00 0.00 77 1015.6
20260506214524 8 50 1.6 4.8 0.00 0.00 0.00 75 1015.5
20260506213026 9 50 0.0 6.4 0.00 0.00 0.00 73 1015.5
20260506211525 10 48 1.6 4.8 0.00 0.00 0.00 72 1015.5
20260506210027 10 48 0.0 3.2 0.00 0.00 0.00 69 1015.3
20260506204524 10 74 1.6 6.4 0.00 0.00 0.00 67 1015.2
20260506203026 10 79 0.0 4.8 0.00 0.00 0.00 65 1015.1
20260506201528 11 48 1.6 4.8 0.00 0.00 0.00 62 1015.0
20260506200029 11 46 1.6 8.0 0.00 0.00 0.00 61 1014.8
20260506194534 11 191 1.6 6.4 0.00 0.00 0.00 59 1014.7
20260506193017 11 50 3.2 6.4 0.00 0.00 0.00 58 1014.6
20260506191524 11 61 0.0 4.8 0.00 0.00 0.00 59 1014.5
20260506190028 11 31 3.2 8.0 0.00 0.00 0.00 58 1014.4
20260506184529 11 49 1.6 6.4 0.00 0.00 0.00 58 1014.4
20260506183030 12 35 1.6 6.4 0.00 0.00 0.00 58 1014.2
20260506181520 12 42 1.6 9.7 0.00 0.00 0.00 57 1014.0
20260506180030 12 60 3.2 6.4 0.00 0.00 0.00 57 1013.7
20260506174528 12 65 1.6 6.4 0.00 0.00 0.00 56 1013.7
20260506173030 12 26 3.2 8.0 0.00 0.00 0.00 55 1013.7
20260506171529 12 82 3.2 9.7 0.00 0.00 0.00 55 1013.6
20260506170022 12 83 1.6 11.3 0.00 0.00 0.00 55 1013.6
20260506164525 12 59 1.6 9.7 0.00 0.00 0.00 56 1013.6
20260506163028 12 63 3.2 9.7 0.00 0.00 0.00 56 1013.7
20260506161530 12 51 3.2 11.3 0.00 0.00 0.00 56 1013.6
20260506160030 13 90 1.6 8.0 0.00 0.00 0.00 55 1013.6
20260506154525 13 67 3.2 14.5 0.00 0.00 0.00 52 1013.7
20260506153039 14 64 3.2 14.5 0.00 0.00 0.00 52 1013.7
20260506151528 14 56 4.8 8.0 0.00 0.00 0.00 53 1013.8
20260506150030 13 79 1.6 9.7 0.00 0.00 0.00 53 1013.9
20260506144548 12 75 4.8 12.9 0.00 0.00 0.00 55 1014.0
20260506143023 13 75 3.2 11.3 0.00 0.00 0.00 53 1013.8
20260506141529 13 60 4.8 11.3 0.00 0.00 0.00 53 1013.8
20260506140015 13 47 4.8 16.1 0.00 0.00 0.00 52 1013.9
20260506134517 13 68 4.8 14.5 0.00 0.00 0.00 52 1013.8
20260506133023 13 55 3.2 11.3 0.00 0.00 0.00 51 1013.8
20260506131535 13 89 4.8 14.5 0.00 0.00 0.00 52 1013.7
20260506130022 13 49 4.8 17.7 0.00 0.00 0.00 50 1013.9
20260506124516 13 53 4.8 14.5 0.00 0.00 0.00 49 1013.8